Weather History for CYYG - April, 2013

Change the Weather History Date:

Sunday, April 21, 2013

  Actual Average Record
Temperature  
Mean Temperature 33 °F -  
Max Temperature 42 °F 53 °F 65 °F (2012)
Min Temperature 24 °F 36 °F 24 °F (2013)
Degree Days  
Heating Degree Days 32    
Moisture  
Dew Point 27 °F    
Average Humidity 68    
Maximum Humidity 93    
Minimum Humidity 40    
Precipitation  
Precipitation 0.00 in 0.12 in - ()
Sea Level Pressure  
Sea Level Pressure 30.32 in    
Wind  
Wind Speed 8 mph ()    
Max Wind Speed 16 mph    
Max Gust Speed 26 mph    
Visibility 15.0 miles    
Events      
Averages and records for this station are not official NWS values.
T = Trace of Precipitation, MM = Missing Value Source: Averaged Metar Reports

Daily Weather History Graph

Daily Weather History Graph

Search for Another Location

Airport or City:

Trip Planner

Search our weather history database for the weather conditions in past years. The results will help you decide how hot, cold, wet, or windy it might be!

Date:

Astronomy

Apr. 21, 2013 Rise Set
Actual Time 6:14 AM ADT 8:08 PM ADT
Civil Twilight 5:42 AM ADT 8:40 PM ADT
Nautical Twilight 5:03 AM ADT 9:20 PM ADT
Astronomical Twilight 4:20 AM ADT 10:03 PM ADT
Moon 3:35 PM ADT (4/21) 3:50 AM ADT (4/21)
Length of Visible Light 14h 57m
Length of Day
13h 53m
Waxing Gibbous, 79% of the Moon is Illuminated
Apr 21
Waxing Gibbous
Apr 25
Full
May 2
Last Quarter
May 9
New
May 18
First Quarter

Hourly Weather History & Observations

Time (ADT) Temp. Windchill Dew Point Humidity Pressure Visibility Wind Dir Wind Speed Gust Speed Precip Events Conditions
12:00 AM 44.6 °F 40.2 °F 41.0 °F 87% 29.98 in 15.0 mi SW 8.1 mph - N/A   Mostly Cloudy
1:00 AM 44.6 °F 40.2 °F 41.0 °F 87% 29.99 in 15.0 mi WSW 8.1 mph - N/A   Mostly Cloudy
2:00 AM 42.8 °F 38.6 °F 41.0 °F 93% 30.02 in 15.0 mi WSW 6.9 mph - N/A   Mostly Cloudy
3:00 AM 42 °F - 39 °F 85% 30.04 in 15 mi WSW 6.9 mph - -   Clear
3:00 AM 42.8 °F 38.6 °F 39.2 °F 87% 30.04 in 15.0 mi WSW 6.9 mph - N/A   Mostly Cloudy
4:00 AM 41.0 °F 35.8 °F 37.4 °F 87% 30.06 in 15.0 mi West 8.1 mph - N/A   Mostly Cloudy
5:00 AM 41.0 °F 34.7 °F 32.0 °F 70% 30.10 in 15.0 mi West 10.4 mph - N/A   Mostly Cloudy
6:00 AM 39.2 °F 33.0 °F 30.2 °F 70% 30.13 in 15.0 mi West 9.2 mph - N/A   Mostly Cloudy
7:00 AM 39.2 °F 32.0 °F 30.2 °F 70% 30.17 in 15.0 mi West 11.5 mph - N/A   Mostly Cloudy
8:00 AM 39.2 °F 33.0 °F 32.0 °F 75% 30.22 in 15.0 mi NW 9.2 mph 19.6 mph N/A   Mostly Cloudy
8:50 AM 35.6 °F 25.9 °F 26.6 °F 70% 30.27 in 15.0 mi NNW 16.1 mph 21.9 mph N/A   Mostly Cloudy
9:00 AM 35 °F - 26 °F 58% 30.28 in 15 mi NNW 13.8 mph - -   Scattered Clouds
9:00 AM 35.6 °F 26.6 °F 26.6 °F 70% 30.28 in 15.0 mi NNW 13.8 mph 24.2 mph N/A   Mostly Cloudy
10:00 AM 35.6 °F 27.5 °F 26.6 °F 70% 30.32 in 15.0 mi NNW 11.5 mph 19.6 mph N/A   Scattered Clouds
11:00 AM 35.6 °F 25.9 °F 23.0 °F 60% 30.36 in 15.0 mi North 16.1 mph 26.5 mph N/A   Partly Cloudy
12:00 PM 37.4 °F 30.3 °F 23.0 °F 56% 30.39 in 15.0 mi NNW 10.4 mph 25.3 mph N/A   Partly Cloudy
2:00 PM 37.4 °F 28.9 °F 21.2 °F 52% 30.43 in 15.0 mi North 13.8 mph 20.7 mph N/A   Scattered Clouds
3:00 PM 36 °F - 20 °F 40% 30.45 in 15 mi NNW 12.7 mph - -   Scattered Clouds
3:00 PM 35.6 °F 27.5 °F 21.2 °F 56% 30.45 in 15.0 mi NNW 11.5 mph 23.0 mph N/A   Partly Cloudy
4:00 PM 35.6 °F 28.6 °F 21.2 °F 56% 30.46 in 15.0 mi North 9.2 mph 25.3 mph N/A   Partly Cloudy
5:00 PM 35.6 °F 29.2 °F 21.2 °F 56% 30.49 in 15.0 mi NNW 8.1 mph 18.4 mph N/A   Partly Cloudy
6:00 PM 35.6 °F 28.0 °F 17.6 °F 48% 30.51 in 15.0 mi North 10.4 mph - N/A   Clear
7:00 PM 33.8 °F 27.7 °F 15.8 °F 48% 30.54 in 15.0 mi North 6.9 mph - N/A   Clear
8:00 PM 28.4 °F 21.2 °F 17.6 °F 64% 30.57 in 15.0 mi NNE 6.9 mph - N/A   Clear
9:00 PM 29 °F - 19 °F 54% 30.60 in 15 mi Calm Calm - -  
9:00 PM 28.4 °F - 19.4 °F 69% 30.60 in 15.0 mi Calm Calm - N/A   Clear
10:00 PM 24.8 °F - 19.4 °F 80% 30.63 in 15.0 mi Calm Calm - N/A   Clear
11:00 PM 26.6 °F - 21.2 °F 80% 30.66 in 15.0 mi SSW 2.3 mph - N/A   Clear